Location: 433rd Scouts Home(Lloyd Manor Park, Etobicoke )
(43.6722°N, 79.5542°W)
Time: 11:09:52
(UTC-04:00)

Nauka - Pass Details

Date: 30 September 2021
Orbit: 417 x 423 km, 51.6° (Epoch: 26 October)

Event Time Altitude Azimuth Distance (km) Brightness Sun altitude
Rises 21:16:34 0° 301° (WNW) 2,367 ? -25.0°
Reaches altitude 10° 21:18:40 10° 302° (WNW) 1,501 ? -25.4°
Enters shadow 21:20:30 30° 301° (WNW) 784 ? -25.7°
